McCook, NE

6:05 PM CST on December 09, 2019 (GMT -0600)
McCook Municipal

Weather History for KMCK - September, 2019

Change the Weather History Date:

Tuesday, September 24, 2019

  Actual Average Record
Temperature  
Mean Temperature 74 °F 60 °F  
Max Temperature 91 °F 76 °F 96 °F (1954)
Min Temperature 56 °F 45 °F 25 °F (1909)
Cooling Degree Days 9    
Growing Degree Days 24 (Base 50)    
Moisture  
Dew Point 56 °F    
Average Humidity 68    
Maximum Humidity 100    
Minimum Humidity 15    
Precipitation  
Precipitation 0.00 in 0.04 in 1.56 in (1955)
Month to date precipitation 0.64 1.15  
Year to date precipitation 17.97 18.86  
Sea Level Pressure  
Sea Level Pressure 29.81 in    
Wind  
Wind Speed 4 mph ()    
Max Wind Speed 13 mph    
Max Gust Speed -    
Visibility 7.5 miles    
Events Fog    
T = Trace of Precipitation, MM = Missing Value Source: Averaged Metar Reports

Daily Weather History Graph

Daily Weather History Graph

Search for Another Location

Airport or City:

Astronomy

Sep. 24, 2019 Rise Set
Actual Time 7:31 AM CDT 7:36 PM CDT
Civil Twilight 7:04 AM CDT 8:03 PM CDT
Nautical Twilight 6:32 AM CDT 8:35 PM CDT
Astronomical Twilight 6:00 AM CDT 9:07 PM CDT
Moon 2:18 AM CDT (9/24) 5:24 PM CDT (9/24)
Length of Visible Light 12h 58m
Length of Day
12h 04m
Waning Crescent, 23% of the Moon is Illuminated
Sep 24
Waning Crescent
Sep 28
New
Oct 5
First Quarter
Oct 13
Full
Oct 21
Last Quarter

Hourly Weather History & Observations

Time (CDT) Temp. Heat Index Dew Point Humidity Pressure Visibility Wind Dir Wind Speed Gust Speed Precip Events Conditions
12:53 AM 66.9 °F - 57.9 °F 73% 29.88 in 10.0 mi Calm Calm - N/A   Clear
1:53 AM 68.0 °F - 60.1 °F 76% 29.87 in 10.0 mi SSW 5.8 mph - N/A   Clear
2:53 AM 68.0 °F - 62.1 °F 81% 29.86 in 10.0 mi Variable 3.5 mph - N/A   Clear
3:53 AM 70.0 °F - 64.0 °F 81% 29.84 in 10.0 mi SSW 5.8 mph - N/A   Clear
4:53 AM 66.9 °F - 64.0 °F 90% 29.83 in 10.0 mi South 8.1 mph - N/A   Clear
5:53 AM 66.0 °F - 64.0 °F 93% 29.83 in 9.0 mi SSW 4.6 mph - N/A   Clear
6:53 AM 64.0 °F - 63.0 °F 96% 29.83 in 5.0 mi South 4.6 mph - N/A   Clear
7:17 AM 62.1 °F - 61.0 °F 96% 29.88 in 1.2 mi Calm Calm - N/A   Clear
7:24 AM 61.0 °F - 60.1 °F 97% 29.88 in 0.5 mi Calm Calm - N/A Fog Fog
7:53 AM 60.1 °F - 60.1 °F 100% 29.84 in 0.2 mi Calm Calm - N/A Fog Fog
8:16 AM 63.0 °F - 63.0 °F 100% 29.89 in 1.0 mi Calm Calm - N/A   Mist
8:44 AM 63.0 °F - 62.1 °F 97% 29.89 in 2.5 mi Calm Calm - N/A   Overcast
8:53 AM 63.0 °F - 62.1 °F 97% 29.84 in 2.5 mi Calm Calm - N/A   Overcast
9:02 AM 63.0 °F - 62.1 °F 97% 29.88 in 3.0 mi Calm Calm - N/A   Overcast
9:51 AM 68.0 °F - 64.4 °F 88% 29.89 in 6.0 mi WSW 5.8 mph - N/A   Scattered Clouds
9:53 AM 68.0 °F - 64.0 °F 87% 29.83 in 6.0 mi WSW 5.8 mph - N/A   Partly Cloudy
10:53 AM 68.0 °F - 62.1 °F 81% 29.83 in 10.0 mi West 8.1 mph - N/A   Clear
11:53 AM 73.9 °F - 62.1 °F 66% 29.82 in 10.0 mi Calm Calm - N/A   Clear
12:53 PM 82.0 °F 82.4 °F 60.1 °F 47% 29.79 in 10.0 mi Variable 6.9 mph - N/A   Clear
1:53 PM 84.0 °F 84.0 °F 60.1 °F 44% 29.75 in 10.0 mi Calm Calm - N/A   Clear
2:53 PM 90.0 °F - 39.9 °F 17% 29.72 in 10.0 mi NW 12.7 mph - N/A   Clear
3:53 PM 91.0 °F - 37.9 °F 15% 29.70 in 10.0 mi North 12.7 mph - N/A   Clear
4:53 PM 90.0 °F - 39.0 °F 17% 29.68 in 10.0 mi NNW 10.4 mph - N/A   Clear
5:53 PM 89.1 °F - 39.0 °F 17% 29.69 in 9.0 mi NNW 9.2 mph - N/A   Clear
6:53 PM 82.0 °F - 44.1 °F 26% 29.70 in 10.0 mi NNW 9.2 mph - N/A   Clear
7:53 PM 72.0 °F - 45.0 °F 38% 29.72 in 10.0 mi NNW 12.7 mph - N/A   Clear
8:53 PM 66.0 °F - 46.9 °F 50% 29.74 in 10.0 mi North 10.4 mph - N/A   Clear
9:53 PM 64.9 °F - 46.9 °F 52% 29.75 in 10.0 mi NE 5.8 mph - N/A   Clear
10:53 PM 63.0 °F - 48.9 °F 60% 29.78 in 10.0 mi NE 4.6 mph - N/A   Clear
11:53 PM 60.1 °F - 48.9 °F 67% 29.79 in 10.0 mi East 3.5 mph - N/A   Clear